Time,TemperatureF,DewpointF,PressureIn,WindDirection,WindDirectionDegrees,WindSpeedMPH,WindSpeedGustMPH,Humidity,HourlyPrecipIn,Conditions,Clouds,dailyrainin,SoftwareType,DateUTC
2013-03-17 00:03:00,17.0,14.0,29.95,West,278,0.0,1.0,89,0.00,,,0.00,,2013-03-17 04:03:00,
2013-03-17 00:13:00,17.0,14.0,29.95,West,278,0.0,1.0,89,0.00,,,0.00,,2013-03-17 04:13:00,
2013-03-17 00:23:00,18.0,16.0,29.95,West,278,0.0,1.0,90,0.00,,,0.00,,2013-03-17 04:23:00,
2013-03-17 00:33:00,17.0,14.0,29.95,West,278,0.0,0.0,89,0.00,,,0.00,,2013-03-17 04:33:00,
2013-03-17 00:43:00,17.0,14.0,29.95,West,278,0.0,0.0,89,0.00,,,0.00,,2013-03-17 04:43:00,
2013-03-17 00:53:00,17.0,15.0,29.95,West,278,0.0,0.0,90,0.00,,,0.00,,2013-03-17 04:53:00,
2013-03-17 01:03:00,17.0,15.0,29.95,West,278,0.0,0.0,91,0.00,,,0.00,,2013-03-17 05:03:00,
2013-03-17 01:12:00,17.0,15.0,29.95,West,278,0.0,0.0,91,0.00,,,0.00,,2013-03-17 05:12:00,
2013-03-17 01:22:00,18.0,16.0,29.96,WSW,244,1.0,3.0,91,0.00,,,0.00,,2013-03-17 05:22:00,
2013-03-17 01:32:00,19.0,16.0,29.96,WSW,255,0.0,3.0,88,0.00,,,0.00,,2013-03-17 05:32:00,
2013-03-17 01:42:00,19.0,16.0,29.96,WSW,255,0.0,3.0,88,0.00,,,0.00,,2013-03-17 05:42:00,
2013-03-17 01:52:00,19.0,16.0,29.96,WSW,249,1.0,5.0,88,0.00,,,0.00,,2013-03-17 05:52:00,
2013-03-17 02:02:00,19.0,16.0,29.96,West,268,0.0,1.0,87,0.00,,,0.00,,2013-03-17 06:02:00,
2013-03-17 02:12:00,19.0,16.0,29.96,West,268,0.0,1.0,87,0.00,,,0.00,,2013-03-17 06:12:00,
2013-03-17 02:22:00,20.0,16.0,29.98,West,263,1.0,5.0,86,0.00,,,0.00,,2013-03-17 06:22:00,
2013-03-17 02:32:00,20.0,16.0,29.99,NW,316,2.0,4.0,85,0.00,,,0.00,,2013-03-17 06:32:00,
2013-03-17 02:42:00,20.0,16.0,29.99,NW,316,2.0,4.0,85,0.00,,,0.00,,2013-03-17 06:42:00,
2013-03-17 02:53:00,21.0,17.0,29.99,WSW,258,2.0,7.0,83,0.00,,,0.00,,2013-03-17 06:53:00,
2013-03-17 03:02:00,21.0,16.0,29.99,NW,309,3.0,6.0,82,0.00,,,0.00,,2013-03-17 07:02:00,
2013-03-17 03:12:00,21.0,16.0,29.99,NW,309,3.0,6.0,82,0.00,,,0.00,,2013-03-17 07:12:00,
2013-03-17 03:22:00,21.0,16.0,29.98,WNW,289,2.0,5.0,82,0.00,,,0.00,,2013-03-17 07:22:00,
2013-03-17 03:32:00,21.0,16.0,29.98,SW,230,1.0,4.0,82,0.00,,,0.00,,2013-03-17 07:32:00,
2013-03-17 03:42:00,21.0,16.0,29.98,SW,230,1.0,4.0,82,0.00,,,0.00,,2013-03-17 07:42:00,
2013-03-17 03:52:00,20.0,15.0,29.98,SW,229,0.0,2.0,82,0.00,,,0.00,,2013-03-17 07:52:00,
2013-03-17 04:03:00,20.0,16.0,29.99,West,259,0.0,3.0,83,0.00,,,0.00,,2013-03-17 08:03:00,
2013-03-17 04:13:00,20.0,16.0,29.99,WNW,283,0.0,1.0,84,0.00,,,0.00,,2013-03-17 08:13:00,
2013-03-17 04:22:00,20.0,16.0,29.99,WNW,283,0.0,1.0,84,0.00,,,0.00,,2013-03-17 08:22:00,
2013-03-17 04:33:00,20.0,16.0,30.00,WNW,288,0.0,2.0,84,0.00,,,0.00,,2013-03-17 08:33:00,
2013-03-17 04:42:00,20.0,16.0,30.00,WNW,288,0.0,2.0,84,0.00,,,0.00,,2013-03-17 08:42:00,
2013-03-17 04:52:00,22.0,18.0,30.00,NW,316,2.0,4.0,83,0.00,,,0.00,,2013-03-17 08:52:00,
2013-03-17 05:03:00,22.0,18.0,30.00,WNW,290,4.0,6.0,84,0.00,,,0.00,,2013-03-17 09:03:00,
2013-03-17 05:13:00,22.0,18.0,30.00,WNW,290,4.0,6.0,84,0.00,,,0.00,,2013-03-17 09:13:00,
2013-03-17 05:22:00,22.0,18.0,30.00,West,278,2.0,7.0,86,0.00,,,0.00,,2013-03-17 09:22:00,
2013-03-17 05:32:00,22.0,19.0,30.01,NW,323,3.0,7.0,87,0.00,,,0.00,,2013-03-17 09:32:00,
2013-03-17 05:43:00,22.0,19.0,30.01,NW,323,3.0,7.0,87,0.00,,,0.00,,2013-03-17 09:43:00,
2013-03-17 05:53:00,22.0,19.0,30.02,NW,312,2.0,5.0,88,0.00,,,0.00,,2013-03-17 09:53:00,
2013-03-17 06:03:00,22.0,19.0,30.03,WNW,291,2.0,7.0,88,0.00,,,0.00,,2013-03-17 10:03:00,
2013-03-17 06:13:00,22.0,19.0,30.03,WNW,291,2.0,7.0,88,0.00,,,0.00,,2013-03-17 10:13:00,
2013-03-17 06:23:00,22.0,19.0,30.04,WNW,293,1.0,3.0,89,0.00,,,0.00,,2013-03-17 10:23:00,
2013-03-17 06:33:00,22.0,19.0,30.04,WNW,303,2.0,3.0,89,0.00,,,0.00,,2013-03-17 10:33:00,
2013-03-17 06:42:00,22.0,19.0,30.04,WNW,303,2.0,3.0,89,0.00,,,0.00,,2013-03-17 10:42:00,
2013-03-17 06:53:00,22.0,19.0,30.05,NW,304,1.0,4.0,89,0.00,,,0.00,,2013-03-17 10:53:00,
2013-03-17 07:02:00,22.0,20.0,30.05,WNW,302,1.0,3.0,90,0.00,,,0.00,,2013-03-17 11:02:00,
2013-03-17 07:12:00,22.0,20.0,30.05,WNW,302,1.0,3.0,90,0.00,,,0.00,,2013-03-17 11:12:00,
2013-03-17 07:22:00,22.0,20.0,30.06,North,349,1.0,4.0,90,0.00,,,0.00,,2013-03-17 11:22:00,
2013-03-17 07:32:00,22.0,20.0,30.06,WNW,292,0.0,1.0,90,0.00,,,0.00,,2013-03-17 11:32:00,
2013-03-17 07:42:00,22.0,20.0,30.06,WNW,292,0.0,1.0,90,0.00,,,0.00,,2013-03-17 11:42:00,
2013-03-17 07:52:00,21.0,19.0,30.07,WNW,285,0.0,1.0,91,0.00,,,0.00,,2013-03-17 11:52:00,
2013-03-17 08:02:00,22.0,20.0,30.08,WNW,299,0.0,2.0,91,0.00,,,0.00,,2013-03-17 12:02:00,
2013-03-17 08:12:00,22.0,20.0,30.08,WNW,299,0.0,2.0,91,0.00,,,0.00,,2013-03-17 12:12:00,
2013-03-17 08:22:00,22.0,20.0,30.08,West,275,0.0,3.0,91,0.00,,,0.00,,2013-03-17 12:22:00,
2013-03-17 08:33:00,23.0,21.0,30.09,WNW,295,1.0,2.0,90,0.00,,,0.00,,2013-03-17 12:33:00,
2013-03-17 08:43:00,23.0,21.0,30.09,WNW,295,1.0,2.0,90,0.00,,,0.00,,2013-03-17 12:43:00,
2013-03-17 08:52:00,23.0,21.0,30.10,NW,317,1.0,4.0,90,0.00,,,0.00,,2013-03-17 12:52:00,
2013-03-17 09:02:00,24.0,21.0,30.10,WNW,284,1.0,4.0,89,0.00,,,0.00,,2013-03-17 13:02:00,
2013-03-17 09:13:00,24.0,21.0,30.10,WNW,284,1.0,4.0,89,0.00,,,0.00,,2013-03-17 13:13:00,
2013-03-17 09:22:00,24.0,21.0,30.11,NW,307,1.0,5.0,87,0.00,,,0.00,,2013-03-17 13:22:00,
2013-03-17 09:32:00,25.0,21.0,30.11,West,264,1.0,3.0,85,0.00,,,0.00,,2013-03-17 13:32:00,
2013-03-17 09:42:00,25.0,21.0,30.11,West,264,1.0,3.0,85,0.00,,,0.00,,2013-03-17 13:42:00,
2013-03-17 09:52:00,26.0,21.0,30.13,NW,325,3.0,6.0,81,0.00,,,0.00,,2013-03-17 13:52:00,
2013-03-17 10:02:00,26.0,21.0,30.13,NNE,17,3.0,7.0,81,0.00,,,0.00,,2013-03-17 14:02:00,
2013-03-17 10:12:00,26.0,21.0,30.13,NNE,17,3.0,7.0,81,0.00,,,0.00,,2013-03-17 14:12:00,
2013-03-17 10:22:00,26.0,21.0,30.14,NNE,25,4.0,5.0,81,0.00,,,0.00,,2013-03-17 14:22:00,
2013-03-17 10:32:00,25.0,20.0,30.14,North,11,7.0,11.0,80,0.00,,,0.00,,2013-03-17 14:32:00,
2013-03-17 10:42:00,25.0,20.0,30.14,North,11,7.0,11.0,80,0.00,,,0.00,,2013-03-17 14:42:00,
2013-03-17 10:53:00,25.0,20.0,30.14,NNW,345,2.0,4.0,80,0.00,,,0.00,,2013-03-17 14:53:00,
2013-03-17 11:02:00,25.0,20.0,30.14,NW,311,3.0,6.0,80,0.00,,,0.00,,2013-03-17 15:02:00,
2013-03-17 11:12:00,25.0,20.0,30.14,NW,311,3.0,6.0,80,0.00,,,0.00,,2013-03-17 15:12:00,
2013-03-17 11:23:00,26.0,21.0,30.15,West,281,4.0,6.0,82,0.00,,,0.00,,2013-03-17 15:23:00,
2013-03-17 11:33:00,27.0,22.0,30.15,WSW,245,2.0,4.0,82,0.00,,,0.00,,2013-03-17 15:33:00,
2013-03-17 11:43:00,27.0,22.0,30.15,WSW,245,2.0,4.0,82,0.00,,,0.00,,2013-03-17 15:43:00,
2013-03-17 11:53:00,28.0,22.0,30.16,NNE,18,0.0,3.0,78,0.00,,,0.00,,2013-03-17 15:53:00,
2013-03-17 12:03:00,28.0,21.0,30.16,NNW,341,6.0,10.0,74,0.00,,,0.00,,2013-03-17 16:03:00,
2013-03-17 12:13:00,28.0,21.0,30.16,NNW,341,6.0,10.0,74,0.00,,,0.00,,2013-03-17 16:13:00,
2013-03-17 12:23:00,28.0,22.0,30.17,NNE,20,5.0,8.0,77,0.00,,,0.00,,2013-03-17 16:23:00,
2013-03-17 12:33:00,28.0,20.0,30.17,NNW,331,6.0,9.0,71,0.00,,,0.00,,2013-03-17 16:33:00,
2013-03-17 12:43:00,28.0,20.0,30.17,NNW,331,6.0,9.0,71,0.00,,,0.00,,2013-03-17 16:43:00,
2013-03-17 12:52:00,28.0,19.0,30.18,North,11,3.0,8.0,68,0.00,,,0.00,,2013-03-17 16:52:00,
2013-03-17 13:02:00,28.0,18.0,30.19,NNW,342,8.0,12.0,66,0.00,,,0.00,,2013-03-17 17:02:00,
2013-03-17 13:12:00,28.0,18.0,30.19,NNW,342,8.0,12.0,66,0.00,,,0.00,,2013-03-17 17:12:00,
2013-03-17 13:22:00,28.0,18.0,30.19,NNE,18,8.0,11.0,67,0.00,,,0.00,,2013-03-17 17:22:00,
2013-03-17 13:33:00,27.0,18.0,30.19,North,356,7.0,12.0,68,0.00,,,0.00,,2013-03-17 17:33:00,
2013-03-17 13:42:00,27.0,18.0,30.19,North,356,7.0,12.0,68,0.00,,,0.00,,2013-03-17 17:42:00,
2013-03-17 13:53:00,28.0,19.0,30.19,NNE,25,4.0,9.0,68,0.00,,,0.00,,2013-03-17 17:53:00,
2013-03-17 14:02:00,28.0,18.0,30.19,NNW,327,7.0,13.0,67,0.00,,,0.00,,2013-03-17 18:02:00,
2013-03-17 14:12:00,28.0,18.0,30.19,NNW,327,7.0,13.0,67,0.00,,,0.00,,2013-03-17 18:12:00,
2013-03-17 14:22:00,29.0,19.0,30.19,NNW,338,5.0,12.0,65,0.00,,,0.00,,2013-03-17 18:22:00,
2013-03-17 14:32:00,29.0,18.0,30.19,NE,51,8.0,11.0,62,0.00,,,0.00,,2013-03-17 18:32:00,
2013-03-17 14:42:00,29.0,18.0,30.19,NE,51,8.0,11.0,62,0.00,,,0.00,,2013-03-17 18:42:00,
2013-03-17 14:52:00,29.0,19.0,30.19,NNW,329,9.0,15.0,67,0.00,,,0.00,,2013-03-17 18:52:00,
2013-03-17 15:02:00,29.0,18.0,30.19,NNW,331,4.0,12.0,63,0.00,,,0.00,,2013-03-17 19:02:00,
2013-03-17 15:12:00,29.0,18.0,30.19,NNW,331,4.0,12.0,63,0.00,,,0.00,,2013-03-17 19:12:00,
2013-03-17 15:22:00,29.0,19.0,30.19,NW,310,5.0,10.0,67,0.00,,,0.00,,2013-03-17 19:22:00,
2013-03-17 15:33:00,29.0,18.0,30.19,WNW,290,4.0,12.0,62,0.00,,,0.00,,2013-03-17 19:33:00,
2013-03-17 15:42:00,29.0,18.0,30.19,WNW,290,4.0,12.0,62,0.00,,,0.00,,2013-03-17 19:42:00,
2013-03-17 15:53:00,29.0,18.0,30.19,NW,326,7.0,12.0,62,0.01,,,0.01,,2013-03-17 19:53:00,
2013-03-17 16:02:00,29.0,19.0,30.20,NNW,336,4.0,11.0,65,0.01,,,0.01,,2013-03-17 20:02:00,
2013-03-17 16:12:00,29.0,19.0,30.20,NNW,336,4.0,11.0,65,0.01,,,0.01,,2013-03-17 20:12:00,
2013-03-17 16:22:00,29.0,18.0,30.20,North,8,6.0,11.0,64,0.01,,,0.01,,2013-03-17 20:22:00,
2013-03-17 16:33:00,29.0,19.0,30.20,NNW,347,5.0,12.0,65,0.01,,,0.01,,2013-03-17 20:33:00,
2013-03-17 16:42:00,29.0,19.0,30.20,NNW,347,5.0,12.0,65,0.01,,,0.01,,2013-03-17 20:42:00,
2013-03-17 16:52:00,29.0,17.0,30.21,NNW,347,6.0,9.0,60,0.00,,,0.01,,2013-03-17 20:52:00,
2013-03-17 17:03:00,30.0,18.0,30.20,NNW,338,5.0,9.0,60,0.00,,,0.01,,2013-03-17 21:03:00,
2013-03-17 17:12:00,30.0,18.0,30.20,NNW,338,5.0,9.0,60,0.00,,,0.01,,2013-03-17 21:12:00,
2013-03-17 17:23:00,30.0,17.0,30.22,NNW,342,4.0,9.0,59,0.00,,,0.01,,2013-03-17 21:23:00,
2013-03-17 17:33:00,30.0,17.0,30.22,NW,319,6.0,11.0,57,0.00,,,0.01,,2013-03-17 21:33:00,
2013-03-17 17:43:00,30.0,17.0,30.22,NW,319,6.0,11.0,57,0.00,,,0.01,,2013-03-17 21:43:00,
2013-03-17 17:52:00,30.0,16.0,30.22,WNW,296,4.0,7.0,55,0.00,,,0.01,,2013-03-17 21:52:00,
2013-03-17 18:03:00,29.0,14.0,30.23,WNW,297,5.0,8.0,54,0.00,,,0.01,,2013-03-17 22:03:00,
2013-03-17 18:13:00,29.0,14.0,30.23,NNW,328,3.0,8.0,54,0.00,,,0.01,,2013-03-17 22:13:00,
2013-03-17 18:23:00,29.0,14.0,30.23,NNW,328,3.0,8.0,54,0.00,,,0.01,,2013-03-17 22:23:00,
2013-03-17 18:33:00,28.0,14.0,30.23,North,357,5.0,10.0,54,0.00,,,0.01,,2013-03-17 22:33:00,
2013-03-17 18:42:00,28.0,14.0,30.23,North,357,5.0,10.0,54,0.00,,,0.01,,2013-03-17 22:42:00,
2013-03-17 18:53:00,28.0,14.0,30.24,NNW,343,4.0,8.0,54,0.00,,,0.01,,2013-03-17 22:53:00,
2013-03-17 19:03:00,27.0,14.0,30.25,NNW,333,2.0,6.0,57,0.00,,,0.01,,2013-03-17 23:03:00,
2013-03-17 19:12:00,27.0,14.0,30.25,NNW,333,2.0,6.0,57,0.00,,,0.01,,2013-03-17 23:12:00,
2013-03-17 19:22:00,26.0,14.0,30.25,NW,320,4.0,7.0,59,0.00,,,0.01,,2013-03-17 23:22:00,
2013-03-17 19:33:00,26.0,14.0,30.26,North,359,4.0,6.0,59,0.00,,,0.01,,2013-03-17 23:33:00,
2013-03-17 19:43:00,26.0,14.0,30.26,North,359,4.0,6.0,59,0.00,,,0.01,,2013-03-17 23:43:00,
2013-03-17 19:53:00,25.0,13.0,30.26,NNW,341,2.0,6.0,61,0.00,,,0.01,,2013-03-17 23:53:00,
2013-03-17 20:03:00,25.0,14.0,30.26,NNW,345,3.0,6.0,62,0.00,,,0.01,,2013-03-18 00:03:00,
2013-03-17 20:13:00,25.0,14.0,30.26,NNW,345,3.0,6.0,62,0.00,,,0.01,,2013-03-18 00:13:00,
2013-03-17 20:22:00,24.0,12.0,30.27,North,1,2.0,4.0,59,0.00,,,0.01,,2013-03-18 00:22:00,
2013-03-17 20:33:00,24.0,12.0,30.27,NNW,327,3.0,5.0,59,0.00,,,0.01,,2013-03-18 00:33:00,
2013-03-17 20:42:00,24.0,12.0,30.27,NNW,327,3.0,5.0,59,0.00,,,0.01,,2013-03-18 00:42:00,
2013-03-17 20:53:00,24.0,12.0,30.28,North,355,1.0,4.0,59,0.00,,,0.01,,2013-03-18 00:53:00,
2013-03-17 21:02:00,23.0,11.0,30.29,NW,321,2.0,5.0,59,0.00,,,0.01,,2013-03-18 01:02:00,
2013-03-17 21:12:00,23.0,11.0,30.29,NW,321,2.0,5.0,59,0.00,,,0.01,,2013-03-18 01:12:00,
2013-03-17 21:22:00,23.0,11.0,30.29,NNW,347,1.0,2.0,59,0.00,,,0.01,,2013-03-18 01:22:00,
2013-03-17 21:32:00,23.0,11.0,30.29,NW,323,1.0,3.0,59,0.00,,,0.01,,2013-03-18 01:32:00,
2013-03-17 21:42:00,23.0,11.0,30.29,NW,323,1.0,3.0,59,0.00,,,0.01,,2013-03-18 01:42:00,
2013-03-17 21:52:00,21.0,11.0,30.29,NW,317,0.0,0.0,65,0.00,,,0.01,,2013-03-18 01:52:00,
2013-03-17 22:02:00,20.0,11.0,30.29,NW,317,0.0,0.0,66,0.00,,,0.01,,2013-03-18 02:02:00,
2013-03-17 22:12:00,20.0,11.0,30.29,NW,317,0.0,0.0,66,0.00,,,0.01,,2013-03-18 02:12:00,
2013-03-17 22:22:00,20.0,12.0,30.29,NW,316,0.0,0.0,72,0.00,,,0.01,,2013-03-18 02:22:00,
2013-03-17 22:32:00,20.0,12.0,30.30,NW,316,0.0,0.0,71,0.00,,,0.01,,2013-03-18 02:32:00,
2013-03-17 22:42:00,20.0,12.0,30.30,NW,316,0.0,0.0,71,0.00,,,0.01,,2013-03-18 02:42:00,
2013-03-17 22:52:00,20.0,13.0,30.30,SW,221,1.0,2.0,73,0.00,,,0.01,,2013-03-18 02:52:00,
2013-03-17 23:03:00,20.0,13.0,30.30,SW,232,0.0,1.0,74,0.00,,,0.01,,2013-03-18 03:03:00,
2013-03-17 23:12:00,20.0,13.0,30.30,SW,232,0.0,1.0,74,0.00,,,0.01,,2013-03-18 03:12:00,
2013-03-17 23:22:00,19.0,13.0,30.31,SW,232,0.0,0.0,78,0.00,,,0.01,,2013-03-18 03:22:00,
2013-03-17 23:33:00,18.0,13.0,30.31,SW,232,0.0,0.0,79,0.00,,,0.01,,2013-03-18 03:33:00,
2013-03-17 23:42:00,18.0,13.0,30.31,SW,232,0.0,0.0,79,0.00,,,0.01,,2013-03-18 03:42:00,
2013-03-17 23:53:00,17.0,12.0,30.30,SW,232,0.0,1.0,82,0.00,,,0.01,,2013-03-18 03:53:00,